Wind_Speed
33 32 31 30 29 27 26 26 24 22 21 20 20 20 22 23 23 24 26 28 29 30 30 29 28 28 28 28 27 27 27 27 27 28 28 28 28 29 29 28 27 27 25 24 22 21 21 20 20 20 19 18 16 15 13 13 13 14 14 14 15 15 14 14 14 15 15 15 16 16 16 16 16 16 16 16 16 16 16 17 18 19 20 21 22
34 33 32 30 29 27 26 25 23 22 22 21 20 20 21 23 23 24 26 28 30 31 31 30 29 29 29 29 29 28 27 27 28 28 28 29 29 29 28 27 26 25 24 23 22 21 20 19 19 19 18 17 16 14 13 13 13 14 14 14 14 15 15 14 14 14 15 16 16 16 16 16 15 15 15 15 15 16 16 17 18 19 20 21 22
32 32 32 30 29 27 27 26 25 24 23 21 21 21 22 23 24 25 26 29 30 31 32 31 30 30 29 30 30 29 28 28 28 28 29 29 29 29 27 26 25 24 23 22 21 21 20 19 19 19 18 17 16 14 13 13 13 13 14 14 14 14 15 14 14 14 14 15 15 15 15 15 14 14 15 15 16 17 18 19 19 20 21 22 23
29 29 29 29 28 27 27 27 26 25 24 22 21 21 22 23 24 25 27 29 31 32 32 32 31 31 30 31 31 30 30 29 29 29 29 28 28 28 27 26 25 24 23 22 21 21 20 19 19 18 18 17 15 14 13 13 13 13 13 14 14 14 15 15 15 14 14 14 14 14 14 14 14 15 15 16 17 18 19 20 20 21 22 22 21
26 26 27 27 27 27 27 26 26 25 24 23 21 21 22 23 24 25 28 30 31 32 33 32 31 31 31 31 31 31 31 30 29 29 28 27 28 27 26 25 24 24 22 22 21 21 20 18 18 18 18 17 16 15 14 13 13 12 12 12 13 13 14 15 15 15 14 14 14 14 15 15 16 16 17 18 18 19 19 20 20 21 21 20 19
26 26 27 27 27 27 27 27 26 26 24 23 22 22 23 23 24 27 29 31 31 33 34 33 31 31 31 32 32 32 31 30 29 28 27 28 28 27 26 25 24 23 23 22 21 21 20 18 17 17 18 17 16 15 14 14 13 12 12 12 12 12 12 13 14 14 14 15 15 15 16 16 17 18 18 18 19 19 20 20 20 20 19 18 17
28 28 28 28 28 28 28 28 28 27 26 26 24 24 25 25 27 29 31 32 32 33 34 33 31 31 31 32 32 32 31 30 28 28 28 28 28 26 25 24 24 23 22 22 21 21 20 18 17 17 17 17 17 16 15 14 13 12 11 11 11 11 11 12 12 13 13 14 14 15 16 16 17 17 18 18 19 20 20 20 20 19 18 17 18
30 30 30 29 29 29 29 29 28 28 29 28 28 28 29 29 30 31 33 33 34 34 34 33 31 31 31 32 32 32 30 29 28 28 29 29 27 25 25 24 23 23 22 22 21 21 20 18 17 17 17 17 17 16 15 13 12 12 11 11 11 11 10 11 11 11 12 13 13 14 15 16 16 17 18 19 20 20 21 20 19 19 18 18 20
30 30 30 30 30 30 30 29 28 29 29 30 31 32 33 33 33 34 34 34 35 35 34 32 31 31 31 32 32 31 30 29 28 29 30 28 25 24 24 24 23 23 22 22 21 21 20 18 17 17 17 17 16 15 14 13 12 11 11 11 10 10 10 10 10 11 11 12 13 14 14 15 16 17 18 18 19 19 19 19 19 19 20 21 22
31 31 31 31 31 32 31 30 29 29 29 30 31 33 34 34 34 34 34 34 35 35 33 32 31 31 32 32 32 30 29 29 28 30 29 26 23 23 24 24 23 23 22 22 21 21 20 18 17 16 16 16 16 15 14 13 12 11 11 10 10 10 9 9 10 10 11 11 12 13 14 15 15 16 17 17 18 18 18 19 19 20 22 23 25
32 32 32 32 32 33 32 31 30 30 29 30 31 32 33 33 33 33 33 33 34 34 32 31 31 31 31 31 31 29 29 29 29 29 27 23 22 22 23 24 24 23 23 22 21 21 20 18 17 16 16 15 15 15 14 13 12 11 10 10 9 8 8 8 9 9 10 11 12 13 14 15 16 16 17 18 18 19 19 20 21 23 25 27 29
33 34 35 34 34 33 33 32 32 32 32 32 32 33 33 32 32 32 32 32 33 33 31 31 31 31 31 31 30 29 28 28 28 27 24 22 22 22 23 24 24 23 23 22 22 21 20 18 17 16 15 15 14 14 13 12 10 9 8 7 7 7 7 8 9 9 10 11 12 13 14 14 14 14 15 15 16 17 18 19 21 22 24 26 27
33 36 37 36 35 34 33 33 33 33 34 34 33 33 33 32 31 31 31 32 32 32 31 30 30 30 30 30 30 29 28 27 27 25 22 21 22 23 24 24 24 24 23 23 22 21 20 19 17 16 15 14 14 13 11 9 8 6 6 6 6 7 7 8 8 9 10 10 10 10 9 9 9 9 10 10 11 12 14 15 16 18 20 22 24
34 36 37 37 35 33 33 33 33 34 33 33 33 33 33 31 31 30 31 32 32 32 30 30 30 30 30 29 29 29 27 26 25 23 21 22 23 24 25 25 25 24 24 23 22 21 20 19 18 16 15 14 13 11 9 7 6 5 5 5 6 6 6 6 7 8 7 7 6 5 6 8 10 12 12 13 13 15 16 16 16 17 18 19 21
36 36 36 36 34 32 32 32 33 33 33 32 32 33 32 31 30 30 31 32 32 32 30 30 29 29 29 29 29 28 26 24 24 21 20 22 24 25 26 26 26 25 24 23 22 21 21 19 18 16 14 14 12 8 6 6 6 5 4 4 4 4 4 4 4 4 3 4 6 8 9 11 12 13 14 15 16 17 18 19 18 19 20 20 20
39 36 36 36 34 33 32 32 32 33 34 32 31 32 32 31 30 30 31 32 32 32 31 30 29 29 29 28 29 28 25 23 22 19 20 22 24 26 27 28 27 26 25 23 23 22 21 20 18 15 14 13 10 6 5 6 4 3 5 7 8 8 7 6 5 5 7 9 10 10 10 10 10 11 13 14 15 16 18 20 19 20 21 20 20
41 37 36 35 34 33 33 32 31 32 32 32 32 32 32 31 29 30 31 32 32 32 31 30 29 29 28 28 28 26 23 21 20 19 19 22 24 26 27 28 28 27 25 23 22 22 22 20 18 15 13 12 8 5 5 3 2 6 8 9 10 10 10 9 9 10 10 10 9 8 7 8 9 11 12 14 15 16 18 19 19 20 21 21 20
41 38 36 34 34 34 34 33 31 31 31 31 31 32 32 30 29 29 31 32 32 32 31 29 29 28 27 27 26 24 21 20 20 19 19 21 24 27 28 29 28 27 25 24 22 21 21 20 18 14 11 9 6 4 3 1 5 7 7 7 7 7 7 8 9 8 7 5 4 6 8 9 11 13 15 16 18 19 21 21 22 22 22 23 23
40 37 35 34 34 34 34 33 31 30 30 31 31 31 32 30 29 29 31 32 32 32 31 29 29 28 27 26 25 23 21 21 21 20 19 21 23 27 30 30 29 28 26 24 22 21 21 20 17 13 10 7 5 2 1 4 6 6 5 4 4 3 3 4 4 4 4 5 7 9 11 13 15 18 19 20 21 23 24 25 25 25 24 25 24
40 36 35 34 34 34 34 33 31 30 31 32 31 31 31 29 28 29 31 31 31 31 31 30 29 27 27 27 25 23 22 22 22 22 22 22 23 25 30 31 28 27 26 24 22 21 20 19 16 12 8 6 5 2 2 5 5 4 2 2 1 1 2 3 4 6 7 10 12 15 18 21 24 25 26 25 25 26 27 27 27 26 26 26 25
39 36 36 35 35 35 34 33 31 30 31 32 30 30 31 29 28 29 31 31 30 30 30 30 29 28 28 28 27 25 24 25 24 24 24 24 24 26 29 30 27 26 25 23 21 19 19 17 15 11 7 7 6 3 4 5 6 3 2 2 2 3 5 6 8 11 14 17 20 23 26 29 30 30 29 28 28 28 28 28 28 28 27 27 26
39 37 37 36 37 36 35 33 32 31 32 32 29 30 30 29 29 30 31 31 30 29 30 30 29 29 29 29 29 28 26 27 26 25 26 26 26 26 28 28 25 25 23 21 20 18 17 16 15 11 7 9 8 6 6 6 7 5 4 5 5 7 9 11 13 16 19 23 25 27 28 29 30 29 29 29 29 30 30 30 30 30 29 28 28
40 39 38 38 39 38 35 34 33 31 32 31 29 30 30 29 30 31 32 31 30 29 30 30 30 30 30 30 30 28 27 27 26 25 26 27 27 26 27 26 23 23 21 20 19 18 17 16 15 11 7 11 11 9 9 9 9 8 7 7 8 10 12 15 17 20 23 26 27 28 29 29 29 29 29 30 30 31 32 33 33 32 32 30 30
41 41 40 40 40 39 36 35 33 32 32 31 29 30 29 30 31 31 31 31 31 30 30 30 31 31 32 32 31 28 26 26 26 25 26 27 26 25 26 24 22 22 19 18 18 17 16 15 15 12 8 11 14 12 12 12 11 10 9 9 10 12 15 18 21 23 26 29 31 30 29 29 29 29 30 31 32 32 33 35 35 35 35 33 32
43 42 42 42 41 39 36 35 34 33 33 31 29 29 29 30 31 31 31 31 31 31 31 31 32 33 34 33 31 27 24 25 25 24 25 25 25 25 25 22 21 21 18 17 18 16 15 15 15 13 9 10 15 16 15 15 14 13 12 12 13 15 18 21 23 25 28 31 32 30 29 29 29 30 31 32 33 34 35 36 37 37 37 36 35
45 44 44 43 42 39 36 35 35 34 33 31 30 30 30 31 31 32 32 32 31 31 31 31 30 31 31 30 28 25 24 25 25 24 24 24 24 24 23 21 20 19 17 16 17 16 15 14 14 14 11 9 12 14 14 15 16 16 16 16 17 19 21 24 26 28 30 31 31 30 30 30 30 31 32 33 34 35 36 37 37 38 39 39 38
46 45 44 44 42 39 37 36 35 35 33 31 30 30 30 31 32 32 32 32 31 31 31 28 27 27 26 25 24 24 24 25 25 24 24 24 24 23 22 20 19 18 16 15 16 15 15 14 13 13 11 9 10 11 11 12 13 15 16 17 19 21 24 26 27 29 30 30 30 31 31 32 32 33 34 35 35 36 37 37 38 39 39 40 40
47 46 45 43 42 40 38 36 36 35 33 32 31 31 31 31 32 32 32 32 31 31 29 26 25 24 22 21 21 23 25 25 24 24 24 23 22 21 21 21 20 19 15 14 15 15 15 13 13 12 11 10 9 10 11 11 12 13 15 17 19 22 24 26 27 28 29 30 31 32 33 33 34 35 36 37 37 37 38 38 38 39 40 40 41
47 46 44 42 41 40 38 37 36 36 34 33 33 32 31 31 32 32 32 32 31 31 28 26 25 23 21 20 21 23 24 24 23 24 24 24 24 23 22 22 21 20 16 14 15 15 15 14 13 12 11 11 10 11 12 13 14 15 16 18 20 23 24 26 27 29 30 32 33 34 34 35 35 36 37 39 39 39 39 39 39 39 40 41 41
46 44 42 41 40 39 38 38 37 36 35 34 33 33 32 32 32 32 32 32 32 31 29 27 26 24 21 20 20 20 21 22 23 25 26 27 27 26 25 24 23 22 20 17 16 15 15 15 14 13 12 11 11 12 13 15 16 18 20 22 23 25 26 27 29 31 32 34 35 35 36 36 37 38 39 40 40 41 41 41 40 40 40 41 42
45 42 40 40 40 39 38 38 37 37 35 34 33 33 33 32 33 32 33 33 33 32 31 29 27 26 23 20 20 22 24 26 27 29 29 28 28 28 27 26 25 25 23 20 18 17 16 16 16 15 14 13 12 13 14 16 18 21 23 25 26 26 27 29 30 32 34 35 36 37 38 38 39 39 40 41 41 42 42 42 42 42 42 41 42
43 41 40 39 39 39 39 39 37 36 35 33 33 33 33 33 33 33 33 33 33 33 32 31 29 29 26 22 23 26 29 30 30 31 30 29 28 29 29 27 26 25 23 22 20 19 17 18 18 17 16 15 14 15 16 18 20 22 24 26 27 28 29 30 32 33 35 36 37 39 39 40 41 41 42 42 42 43 43 43 43 44 43 43 43
42 41 41 40 40 40 40 39 37 35 34 33 32 32 33 33 34 34 34 35 34 34 34 33 32 31 29 26 26 28 29 30 30 30 29 29 29 30 30 29 27 25 24 23 22 21 19 18 19 18 17 17 17 17 18 20 22 24 25 27 28 29 30 31 32 34 35 36 38 39 41 42 42 43 43 44 44 44 44 45 45 45 45 44 44
42 42 42 41 41 41 40 39 37 36 35 34 33 33 33 34 35 35 36 36 36 36 36 35 34 33 32 30 29 28 28 29 30 30 29 29 30 31 31 30 28 27 26 25 24 23 20 19 19 19 19 19 19 20 20 22 24 25 27 28 30 31 32 32 33 34 36 37 38 40 41 42 43 43 44 45 45 45 45 46 46 47 46 46 45
44 45 44 43 42 41 40 39 38 37 36 36 35 35 35 35 36 36 37 38 38 38 38 38 37 36 35 33 32 31 30 30 30 30 30 30 31 31 31 31 30 29 28 26 25 24 22 19 19 19 20 21 22 23 24 25 26 27 29 30 31 32 33 34 34 35 37 38 39 41 42 42 43 44 45 46 46 46 47 47 47 47 48 47 47
48 47 45 44 44 43 42 40 39 39 38 38 38 37 37 38 38 38 38 39 39 40 40 40 40 39 38 37 36 36 35 34 32 31 32 32 32 32 32 32 33 32 30 28 25 24 22 21 20 21 22 23 25 26 27 28 29 30 31 32 33 34 35 35 36 37 38 40 41 42 43 43 44 45 46 47 47 48 48 49 49 48 48 49 49
50 49 47 45 45 45 44 43 42 41 41 41 41 40 40 40 40 40 40 41 41 42 42 42 42 41 41 40 39 39 39 38 36 34 33 33 33 32 33 34 35 35 33 30 27 26 24 23 23 23 24 26 27 29 30 31 31 32 33 34 35 36 37 37 37 39 40 41 42 43 44 45 46 47 48 48 48 49 50 50 50 49 49 50 51
51 49 48 47 47 46 45 45 44 44 44 44 43 43 43 43 43 43 43 43 44 44 45 45 45 44 44 43 42 41 41 40 39 36 35 34 34 34 34 35 36 37 36 33 31 29 27 26 26 27 28 29 30 31 32 33 33 34 35 36 37 38 39 38 39 41 42 43 44 45 46 47 48 49 50 50 50 50 51 52 51 51 51 52 52
50 49 48 48 48 48 47 46 46 46 46 46 46 45 45 45 46 46 46 46 47 47 47 47 46 45 45 45 45 44 43 42 41 39 38 36 35 35 35 36 37 38 38 36 34 32 31 31 31 32 33 33 33 33 34 35 36 36 37 38 39 39 40 39 40 42 44 45 46 47 48 49 50 51 52 52 52 52 52 52 52 52 53 54 55
50 49 48 48 48 48 48 47 47 47 47 47 47 47 48 48 48 48 48 48 48 48 48 48 48 47 47 47 47 47 45 44 42 41 39 37 36 36 36 36 37 39 39 38 37 36 35 35 35 36 37 37 37 37 38 39 39 39 39 40 40 40 40 40 41 43 45 47 48 49 51 51 52 53 54 54 53 53 53 53 53 54 55 56 56
50 49 49 48 48 48 47 47 46 47 47 48 47 48 50 50 50 50 50 50 51 50 50 50 49 49 49 48 48 47 47 45 43 41 39 38 38 39 39 38 38 39 40 40 40 39 39 39 40 40 41 41 41 41 42 42 42 42 42 42 41 40 40 41 42 45 47 48 49 51 52 52 53 54 55 55 55 55 55 55 55 56 57 57 58
50 50 49 49 49 48 47 46 45 45 46 46 47 48 50 50 50 50 50 50 50 49 49 48 47 47 48 47 47 47 47 46 45 43 42 41 41 42 42 41 41 41 42 42 42 43 43 43 44 44 45 45 45 46 45 44 44 44 43 42 41 41 42 43 44 47 49 50 51 52 53 54 55 55 56 57 57 57 57 57 58 58 58 59 60
48 48 49 49 49 48 46 45 44 44 45 46 47 49 50 50 49 48 47 44 44 44 43 44 44 43 43 44 46 47 49 48 46 45 45 44 42 43 43 43 43 43 44 44 45 46 46 46 47 47 47 48 48 48 47 45 44 44 43 42 42 43 44 45 47 49 51 52 53 54 55 55 56 56 57 57 58 58 59 60 60 60 61 62 63
45 45 46 47 46 45 44 43 43 43 45 46 48 48 48 48 44 41 41 39 39 40 40 41 42 40 38 38 39 42 44 45 45 44 44 44 43 42 43 43 44 44 45 46 47 47 48 48 48 48 49 49 49 48 46 45 44 42 42 42 43 44 45 47 49 51 52 53 54 55 55 56 57 57 57 58 59 59 60 60 61 62 64 65 67
43 43 43 42 42 41 40 39 39 40 42 44 45 43 44 44 39 37 38 37 37 37 38 39 39 36 33 30 28 28 31 35 39 40 41 41 41 42 42 43 44 45 47 47 47 48 48 48 48 49 49 49 48 46 44 43 43 44 44 45 46 47 47 48 50 51 53 54 54 55 55 56 56 57 58 58 59 59 60 61 62 64 66 67 68
42 41 40 39 37 35 33 33 33 35 37 38 40 40 40 39 37 37 37 37 36 36 37 38 35 34 33 29 24 23 28 33 36 38 40 41 42 42 43 44 45 46 47 47 47 47 47 47 47 47 46 45 43 42 43 44 46 47 48 49 50 49 50 50 51 52 53 54 54 54 55 55 57 58 58 59 59 60 61 63 65 66 67 67 68
41 40 38 36 31 27 27 27 28 32 34 33 33 34 32 32 34 35 35 34 34 34 35 34 34 34 33 31 25 23 29 35 38 39 41 42 43 42 43 44 44 45 45 44 45 45 45 45 45 44 42 42 42 43 45 48 50 51 52 53 52 52 53 53 53 53 53 54 55 55 56 57 58 58 58 59 61 62 64 65 66 67 68 68 68
40 39 37 32 24 22 26 27 28 33 35 34 32 29 27 28 30 32 33 33 33 35 35 36 36 33 31 28 24 25 30 33 36 39 39 40 42 42 42 43 42 41 41 42 43 43 42 42 42 41 41 42 44 46 49 52 54 54 55 55 54 54 55 55 54 54 54 54 55 56 56 57 58 59 60 61 63 64 65 66 67 68 68 68 68
38 37 33 27 23 27 32 32 33 35 35 36 36 33 32 31 31 32 34 33 31 31 32 34 34 32 31 29 28 33 37 35 35 37 38 39 40 41 41 40 38 38 39 41 42 41 40 41 42 43 44 46 48 50 53 56 57 56 56 56 56 56 56 56 56 56 56 56 56 56 57 58 59 61 62 64 65 66 67 68 68 68 68 67 67
37 34 30 26 30 37 36 31 34 37 37 39 39 38 38 36 35 36 35 32 30 29 29 30 30 27 28 30 30 35 40 39 38 38 37 37 38 38 37 35 35 36 39 40 41 40 41 43 45 46 48 50 52 54 57 59 58 58 57 57 56 56 56 56 56 57 57 57 57 58 59 60 61 63 64 66 67 68 68 68 68 67 66 66 65
35 33 29 30 36 39 36 33 36 40 40 41 42 42 41 39 39 39 36 34 33 32 32 33 32 30 31 33 34 36 39 41 42 41 39 37 35 35 34 34 35 37 39 40 41 42 43 45 47 50 51 53 55 57 59 60 58 58 57 56 56 56 56 56 57 56 56 57 58 60 61 62 64 65 66 67 68 68 68 68 67 66 65 65 66
Wind_Direction
266 267 268 271 274 274 274 272 269 269 273 278 283 285 284 287 292 296 298 300 302 304 307 310 314 320 321 318 316 316 316 316 316 315 314 314 314 314 315 316 317 318 318 319 319 319 320 321 323 324 323 322 319 316 312 307 303 300 297 293 289 288 287 285 282 279 275 272 270 269 268 268 269 269 270 270 271 271 271 272 272 272 272 272 272
268 269 270 271 272 271 269 266 264 268 274 279 282 283 283 287 292 295 298 301 304 307 309 312 316 320 321 318 316 316 315 315 315 315 315 315 316 316 316 316 317 317 318 318 319 319 319 321 324 325 325 323 321 317 313 307 303 301 298 296 294 291 290 288 285 283 280 278 277 276 275 274 274 274 275 275 276 276 276 277 276 276 276 276 276
270 270 270 269 268 265 263 263 266 271 275 278 281 282 284 289 293 294 298 303 307 309 311 313 316 320 320 317 315 314 314 315 315 315 315 316 318 318 318 318 318 318 318 319 319 319 320 323 326 328 327 324 321 317 313 309 305 303 301 300 297 293 290 289 287 286 285 284 283 282 281 280 279 278 278 279 280 280 281 281 281 281 280 280 280
273 273 272 271 269 265 264 267 270 273 274 277 281 281 284 289 292 295 300 305 308 309 311 312 314 318 318 316 314 313 313 314 314 315 316 317 318 319 320 320 319 319 319 320 320 319 320 324 328 330 328 325 320 317 314 310 307 304 302 300 296 291 288 286 286 286 287 287 288 287 286 285 283 282 282 282 283 284 284 284 284 284 284 284 282
276 275 275 276 275 273 273 275 275 275 273 276 281 280 283 288 292 297 302 305 307 309 310 310 312 317 317 315 313 313 313 314 314 316 317 317 318 319 320 321 320 320 320 321 321 320 320 324 327 329 328 325 321 317 313 310 306 304 301 298 296 293 290 287 285 285 286 287 288 288 287 286 286 286 286 287 287 287 287 288 288 288 287 284 282
276 276 276 278 279 280 280 280 281 279 275 277 281 281 283 287 293 299 302 303 305 308 309 307 309 314 315 314 313 313 313 313 315 317 318 318 320 320 320 321 320 320 321 322 321 320 320 322 326 328 327 325 322 318 314 310 307 304 302 300 298 296 293 290 286 285 285 287 287 288 288 288 289 290 291 291 291 291 292 292 292 290 287 283 281
272 275 276 277 279 280 281 282 284 284 282 282 283 283 285 289 293 297 299 301 303 306 307 304 306 312 313 312 312 313 314 314 315 318 319 321 322 322 321 321 321 321 321 322 322 320 320 322 325 327 328 326 324 320 316 313 310 306 303 300 297 295 292 289 287 286 286 288 289 290 292 293 294 294 295 295 295 295 295 295 294 290 285 282 284
268 272 273 274 275 276 278 279 282 283 283 284 284 285 287 289 291 294 295 298 301 303 304 301 304 310 311 311 312 313 314 315 316 319 322 323 323 323 323 322 321 321 321 322 322 321 321 322 325 327 328 327 325 322 318 316 313 308 304 299 296 293 291 290 289 290 292 293 295 297 298 298 298 299 299 299 298 298 298 297 295 290 286 286 288
266 269 271 271 272 273 275 276 278 279 280 281 282 283 285 287 288 291 292 295 298 300 300 297 301 308 310 311 312 314 315 315 316 321 323 324 324 325 324 323 322 322 322 323 323 322 322 323 325 326 328 328 326 323 320 318 315 310 306 303 300 299 298 299 300 301 302 303 303 303 303 303 303 303 302 303 304 305 305 301 297 293 291 290 291
266 269 270 270 271 272 274 274 275 276 278 280 281 282 283 285 287 289 289 292 295 296 295 294 298 306 309 311 312 314 315 314 318 323 324 325 327 327 326 324 323 323 323 323 324 323 323 324 325 326 328 328 327 324 321 318 315 312 310 308 307 308 309 311 312 312 311 310 308 307 306 306 305 305 306 310 314 316 313 306 299 295 293 292 294
267 269 270 270 270 272 274 274 274 274 277 279 280 280 282 285 287 288 288 290 292 293 291 291 296 304 309 312 312 314 314 314 320 324 325 328 330 329 328 326 325 325 324 324 324 324 323 324 325 327 328 328 327 325 322 318 315 313 312 312 314 316 318 319 318 317 313 310 307 305 305 306 308 311 313 317 319 318 314 308 302 298 295 294 295
268 270 269 270 271 272 274 275 274 274 276 278 279 280 282 285 287 286 286 287 288 288 287 289 295 303 309 311 312 313 312 314 321 325 326 329 331 332 331 329 327 326 324 325 325 324 324 324 325 326 327 327 326 325 321 315 312 312 314 317 322 324 324 321 316 311 307 304 303 305 309 315 320 324 326 326 324 320 315 310 306 303 300 298 298
269 270 270 270 270 272 273 274 273 273 275 277 279 280 282 285 286 284 283 284 284 284 284 288 294 303 309 311 312 312 311 314 320 324 326 329 332 334 334 331 329 326 325 325 325 325 324 324 324 325 326 326 325 323 316 311 310 312 319 325 328 327 323 316 309 305 303 305 312 322 334 347 358 5 4 0 355 348 341 332 323 316 310 306 302
271 272 270 269 269 270 271 272 273 273 274 276 278 279 281 283 284 282 280 281 281 281 283 287 294 303 310 312 312 311 310 313 318 322 325 329 332 335 334 332 330 327 325 324 325 324 323 322 322 323 323 323 323 317 310 309 312 317 329 336 338 335 326 314 306 303 307 323 349 20 43 55 55 49 43 38 32 25 17 9 360 350 338 326 315
274 272 269 267 268 269 269 270 272 273 273 275 277 278 279 281 281 279 278 278 278 279 283 288 295 304 310 311 312 311 310 311 315 319 325 330 332 334 333 332 331 329 327 324 324 324 323 322 321 320 319 320 318 306 300 306 312 329 358 23 28 20 3 342 328 326 356 49 75 83 82 76 66 55 49 44 39 32 27 21 16 11 4 354 342
275 272 267 266 267 269 269 269 269 270 272 276 276 276 278 279 278 277 275 275 276 279 283 288 295 304 309 311 312 312 310 308 311 315 322 328 332 333 332 330 330 330 328 325 324 323 322 322 320 317 315 317 308 289 292 300 315 34 71 74 69 64 58 54 58 74 89 96 98 92 81 67 53 42 36 32 27 23 22 21 20 16 11 4 357
272 269 266 265 266 268 269 269 268 269 272 275 275 275 276 276 274 274 273 273 275 279 284 289 295 303 309 312 313 313 309 303 307 311 316 326 333 333 332 330 330 330 329 327 324 323 323 322 321 315 312 311 291 277 291 292 103 103 96 84 75 71 71 75 81 90 97 99 92 76 53 33 22 16 12 9 7 6 7 9 12 12 11 10 4
267 266 264 263 264 266 267 268 269 270 273 275 274 275 274 273 271 271 271 271 275 279 284 288 295 303 310 312 311 312 306 298 302 306 309 321 333 336 335 332 331 332 331 330 326 324 323 321 320 313 309 299 268 274 287 177 126 115 101 86 75 68 71 78 82 86 85 75 48 18 4 0 357 354 351 349 349 350 351 352 356 359 3 6 5
264 263 262 262 264 265 267 269 271 272 274 274 274 273 272 271 269 269 269 271 275 279 283 287 295 303 309 310 307 307 303 296 296 298 302 315 326 335 337 334 333 334 334 333 330 326 323 321 319 311 303 277 241 267 242 160 139 123 104 90 75 57 52 59 59 46 22 356 344 342 342 341 339 337 335 334 336 339 341 343 346 349 351 355 0
262 261 261 262 263 265 267 270 273 274 274 273 272 271 269 269 268 267 268 270 275 278 282 286 294 301 306 306 302 302 300 296 292 290 296 307 315 325 335 335 333 335 335 335 334 329 325 321 317 309 295 249 219 228 191 171 159 141 125 117 75 10 349 347 346 339 335 333 330 329 328 327 327 327 326 327 331 335 338 340 342 344 345 348 353
260 260 261 262 264 266 268 270 272 273 272 271 270 268 267 267 265 265 267 270 274 277 280 285 293 299 303 304 301 299 297 295 290 287 291 299 307 314 328 334 334 336 336 337 336 332 327 322 316 307 284 231 211 202 185 183 182 183 210 230 270 293 313 320 323 325 326 326 325 323 323 323 323 324 325 328 332 336 338 340 341 342 344 346 347
260 260 260 262 264 266 267 269 270 271 270 269 268 266 265 264 263 264 267 271 273 275 279 285 293 296 300 302 300 297 296 293 287 286 288 295 302 307 321 330 333 335 335 337 337 334 331 326 317 307 273 225 213 206 194 192 197 206 228 249 274 290 304 311 315 319 323 325 324 323 322 323 324 325 328 331 334 335 336 337 339 340 341 342 343
259 259 260 261 263 264 266 267 268 268 267 267 266 265 263 262 263 264 267 271 272 274 278 285 292 294 297 300 299 297 295 291 285 284 285 291 299 304 317 326 331 334 334 337 337 336 334 331 322 308 269 223 217 218 212 207 208 213 229 250 274 290 301 307 311 317 322 325 323 322 322 322 323 325 328 330 331 332 332 333 336 337 337 339 339
257 258 259 260 262 264 265 265 265 264 265 265 265 264 263 263 263 265 268 271 272 274 279 285 291 293 294 296 298 296 291 288 285 283 282 287 295 301 314 322 329 332 333 336 337 338 338 337 329 314 278 228 221 227 228 228 227 228 239 256 274 289 299 305 310 316 320 322 321 320 319 320 321 323 326 327 327 327 327 329 331 332 333 335 336
256 257 258 260 263 265 264 263 262 261 262 263 264 263 262 263 264 266 268 271 273 276 281 287 291 292 292 292 295 293 287 286 285 282 281 285 291 298 311 318 325 331 332 335 337 338 341 343 338 325 297 243 228 233 238 241 243 247 255 266 278 287 296 303 308 313 316 317 318 317 317 318 319 322 323 324 324 322 322 324 326 328 328 330 332
255 257 259 261 263 264 263 261 260 260 260 261 262 262 261 262 264 266 269 272 275 279 284 288 291 292 291 290 292 290 285 283 282 281 281 285 289 297 309 314 320 329 331 334 336 336 341 345 345 335 316 272 241 244 253 256 256 259 264 271 280 289 296 302 306 308 310 312 313 314 314 316 318 320 321 322 321 319 319 320 321 322 324 326 327
255 257 259 262 263 263 261 259 259 259 260 260 261 260 261 262 264 266 269 272 275 279 283 287 293 295 293 291 291 287 283 281 279 279 281 286 290 297 310 312 315 326 331 332 332 332 336 341 345 340 328 301 266 264 278 282 277 275 277 282 289 295 299 301 302 303 306 308 310 311 312 314 316 318 319 320 319 318 317 317 317 317 319 321 323
255 258 260 262 262 261 260 259 258 259 259 259 259 259 260 261 264 266 268 271 273 277 279 283 295 302 299 292 290 285 281 279 278 279 282 288 293 300 310 311 310 319 327 328 327 327 329 333 338 338 333 321 298 290 300 302 297 293 292 296 298 299 299 299 300 302 304 306 308 309 311 312 314 315 317 318 318 317 316 316 315 314 315 317 318
256 258 260 261 261 260 259 258 258 258 258 258 258 259 259 261 263 265 267 268 271 273 274 282 296 306 304 296 291 283 277 276 277 281 286 291 296 301 306 306 308 314 319 320 321 322 321 323 329 333 331 327 316 306 304 303 301 300 300 302 302 301 300 299 300 302 304 305 306 308 309 310 311 313 314 315 316 316 315 314 314 313 313 313 315
256 258 260 260 260 259 259 258 258 257 257 257 257 259 260 261 262 264 265 267 270 270 272 283 295 301 304 299 288 278 275 278 282 287 291 293 295 298 299 299 302 308 312 315 318 316 313 315 319 324 326 322 317 310 306 303 302 303 304 305 305 304 302 301 301 302 303 304 304 305 306 307 309 310 311 312 313 313 313 313 312 312 311 311 311
257 259 259 259 260 260 260 259 258 257 257 257 258 259 260 261 262 263 265 267 269 269 271 281 289 293 298 295 284 279 281 284 288 291 292 293 293 295 297 296 297 301 305 309 314 312 307 308 312 315 318 315 311 308 307 305 303 304 306 307 307 305 304 302 302 302 302 302 303 304 305 307 308 308 309 310 310 310 311 311 311 310 309 309 309
257 258 258 258 259 260 259 258 258 258 258 259 259 259 260 260 261 262 263 265 268 269 271 277 283 287 290 289 283 280 281 284 288 290 290 291 292 294 296 296 297 298 300 302 308 309 302 302 306 309 310 309 306 304 304 304 302 303 304 305 306 305 304 302 302 302 301 301 302 303 305 306 307 307 307 307 307 307 308 308 308 308 307 307 307
256 256 256 256 257 258 259 259 259 260 260 259 259 259 259 260 260 261 263 265 267 270 272 275 279 283 285 286 283 281 282 285 288 289 290 291 292 294 295 296 297 297 297 297 301 303 297 295 299 302 303 303 303 302 302 300 298 299 301 302 303 304 303 301 301 301 301 301 301 302 303 304 305 305 305 305 304 304 304 305 306 306 305 306 306
254 254 254 254 255 257 259 261 261 261 260 260 259 259 259 259 260 261 263 265 267 270 273 275 277 279 282 284 284 283 284 285 287 287 288 290 292 293 294 295 296 295 296 294 295 297 292 288 290 293 296 297 298 299 299 297 295 296 298 299 300 300 300 300 300 301 301 301 300 300 301 302 303 303 303 302 302 302 302 303 303 304 304 304 305
251 251 251 252 254 256 258 260 261 261 261 261 260 259 260 260 261 262 264 266 269 270 273 274 276 277 279 282 282 282 283 286 286 285 285 287 289 290 292 294 294 293 294 291 290 292 288 284 285 287 290 292 294 296 297 296 295 295 296 297 297 298 298 299 300 300 299 299 299 298 299 300 301 301 301 300 300 301 301 302 302 303 303 304 304
250 250 250 250 252 253 255 257 258 260 261 261 261 261 261 261 263 263 265 267 269 271 272 274 275 276 278 280 281 281 283 284 285 284 283 284 286 288 289 291 292 292 291 287 286 288 286 285 286 288 289 291 292 294 296 296 295 294 295 295 296 297 298 299 299 299 298 297 297 297 298 299 299 299 299 299 299 300 301 301 302 302 302 303 303
250 250 250 250 250 251 252 254 256 257 259 260 261 262 263 263 264 265 266 267 268 270 272 273 275 276 278 279 280 281 282 283 284 283 281 282 283 284 286 288 289 289 288 285 284 285 285 285 287 289 290 290 291 292 294 295 295 294 295 295 296 297 298 299 299 298 297 297 297 297 297 298 298 297 297 298 299 300 301 302 302 302 302 302 302
251 251 252 252 251 252 252 253 254 256 257 258 260 261 263 264 265 266 267 268 268 270 271 273 274 276 278 279 280 280 282 283 284 281 278 279 280 281 282 284 286 286 285 283 282 284 284 283 285 286 288 290 290 292 292 294 294 294 295 296 296 297 298 298 298 297 296 296 296 296 296 296 296 296 297 298 300 301 301 301 301 301 301 302 302
252 252 253 253 253 253 253 253 254 255 256 258 259 261 262 264 265 266 267 268 269 270 271 272 274 276 278 280 281 282 283 283 284 282 278 276 277 278 279 281 283 283 283 281 281 281 281 281 281 282 285 288 291 292 293 294 294 294 295 296 297 297 297 298 297 296 295 295 295 295 295 295 295 296 297 299 300 300 300 300 300 301 301 302 302
253 254 254 254 254 254 254 255 255 256 257 258 259 261 262 263 264 266 267 268 269 270 272 273 275 276 278 279 281 283 284 283 283 281 276 273 274 274 276 278 280 281 282 280 279 279 280 280 281 281 283 286 290 293 295 296 296 295 294 295 296 296 296 297 296 295 294 294 294 294 294 294 295 295 297 298 299 299 299 299 300 301 301 301 301
254 254 255 255 255 255 256 256 257 258 258 260 261 261 262 263 264 265 266 267 269 270 271 273 275 275 276 277 279 280 281 281 281 278 274 272 271 271 274 276 277 278 280 280 279 280 281 282 283 284 285 287 290 293 296 297 297 296 295 295 296 296 296 295 294 293 293 293 293 293 293 294 295 296 297 298 299 298 299 300 300 300 300 300 299
254 254 255 255 255 256 256 257 259 259 261 262 263 263 263 263 264 265 267 267 268 269 270 272 273 274 275 275 276 277 277 277 277 274 272 271 269 270 273 274 274 276 277 279 280 281 283 284 285 286 286 288 291 294 296 297 297 296 295 296 296 296 295 294 294 293 293 293 293 293 294 295 296 298 298 298 299 299 300 300 300 300 300 300 299
252 253 254 254 255 256 257 258 260 261 263 263 263 263 263 264 265 265 265 265 266 269 270 271 272 275 276 275 275 275 274 273 272 271 270 269 269 271 273 273 274 275 276 277 279 280 282 284 285 286 287 289 291 293 295 296 296 295 295 295 295 295 295 294 294 293 292 293 293 294 295 296 298 298 298 298 299 299 300 300 300 300 300 300 299
251 252 252 254 255 256 258 259 261 262 263 263 263 264 265 267 265 263 262 262 265 268 270 272 274 277 279 277 274 272 270 268 267 268 268 268 269 272 273 273 274 275 276 277 278 279 280 282 284 286 287 289 291 293 294 295 294 294 294 294 294 293 293 292 292 291 291 292 293 294 295 297 297 298 298 298 298 299 299 299 299 299 299 298 297
250 251 252 253 255 257 259 261 263 264 264 264 265 266 268 268 263 257 258 262 265 266 269 275 275 273 276 276 268 262 261 262 263 265 268 269 269 270 271 273 275 276 276 277 278 278 279 281 283 285 287 289 291 292 293 294 295 295 295 294 294 293 292 291 290 289 290 291 292 294 295 295 296 296 296 296 297 298 298 298 298 297 297 296 296
250 251 252 253 256 259 262 264 266 266 266 267 267 267 267 268 265 260 260 265 267 266 269 273 271 268 269 268 260 251 252 259 262 264 268 269 268 267 269 272 274 275 276 276 277 277 279 282 284 286 288 289 290 292 294 295 296 296 296 295 294 293 291 290 290 290 291 292 293 294 295 295 295 295 295 297 298 298 298 298 297 297 297 296 296
250 251 251 253 256 262 270 271 265 261 260 261 264 266 262 261 266 268 267 270 271 268 265 265 266 267 265 260 255 249 250 259 264 266 269 270 267 266 267 270 272 273 274 275 277 278 281 283 285 285 286 287 289 293 296 297 298 297 296 295 293 292 291 290 291 291 292 293 294 295 295 295 295 296 298 299 299 299 298 298 297 297 297 297 297
250 250 250 251 251 253 260 258 250 250 252 252 255 260 255 250 257 266 269 272 272 266 261 260 263 265 264 258 250 246 250 259 267 270 272 271 268 266 266 268 270 273 275 277 278 279 282 283 283 283 283 286 289 294 297 299 298 297 295 293 292 291 291 291 292 293 294 294 295 295 295 296 298 299 300 299 299 299 298 298 298 298 298 299 299
249 248 248 247 238 234 239 242 242 245 248 250 251 254 255 251 250 257 263 266 265 263 262 262 263 264 263 258 249 248 253 259 266 270 271 270 269 267 267 269 272 275 276 276 277 279 281 282 281 281 283 286 290 293 297 298 297 296 294 292 291 291 291 292 293 294 296 296 296 297 298 299 300 300 299 299 299 298 298 297 298 299 299 299 299
247 246 243 238 229 226 229 237 245 245 245 249 250 251 252 251 250 252 254 254 256 260 263 264 265 263 258 256 254 254 254 256 260 265 268 269 267 266 267 269 272 274 275 275 276 279 281 281 281 281 282 286 289 293 296 297 296 295 293 291 291 291 292 294 295 296 297 298 299 300 301 301 301 300 299 299 298 298 298 299 300 300 301 301 301
246 243 237 233 229 226 223 229 242 245 244 247 248 248 248 248 250 251 250 252 256 259 261 264 266 263 255 255 259 258 255 254 257 261 265 265 263 263 265 268 271 274 276 277 278 279 280 280 279 280 282 286 289 292 295 296 295 294 292 291 291 292 294 295 296 298 299 300 301 301 301 301 300 300 299 299 299 300 301 302 302 303 304 304 304
Height
10889 10890 10891 10892 10893 10893 10893 10893 10893 10892 10892 10892 10891 10891 10890 10889 10888 10887 10884 10882 10880 10878 10877 10876 10876 10876 10875 10873 10872 10871 10870 10869 10868 10867 10865 10863 10861 10860 10859 10857 10856 10854 10852 10851 10849 10847 10846 10844 10843 10841 10840 10839 10838 10837 10836 10836 10835 10835 10834 10834 10834 10833 10833 10833 10832 10832 10831 10831 10830 10830 10830 10830 10829 10829 10828 10828 10828 10828 10827 10827 10827 10826 10826 10825 10825
10887 10888 10889 10890 10891 10891 10891 10891 10890 10890 10890 10890 10889 10889 10888 10887 10886 10884 10882 10880 10878 10877 10875 10874 10874 10874 10873 10871 10870 10869 10868 10867 10866 10865 10863 10862 10860 10858 10856 10855 10853 10852 10850 10848 10847 10845 10844 10843 10841 10840 10839 10837 10836 10835 10835 10834 10834 10833 10833 10833 10832 10832 10832 10831 10831 10831 10830 10830 10829 10829 10828 10828 10828 10827 10827 10826 10826 10826 10825 10825 10824 10824 10823 10823 10822
10885 10886 10886 10887 10888 10888 10888 10888 10888 10888 10888 10888 10887 10887 10886 10885 10884 10882 10880 10878 10876 10875 10874 10873 10872 10872 10871 10869 10867 10867 10866 10865 10864 10863 10862 10860 10859 10856 10854 10853 10851 10850 10848 10847 10845 10844 10842 10841 10840 10838 10837 10836 10835 10834 10833 10833 10832 10832 10832 10831 10831 10831 10831 10830 10830 10829 10829 10829 10828 10828 10827 10827 10826 10826 10825 10825 10824 10824 10823 10823 10822 10821 10821 10820 10819
10883 10884 10884 10885 10885 10885 10886 10886 10886 10885 10885 10885 10885 10884 10884 10883 10881 10879 10877 10876 10874 10873 10872 10871 10871 10870 10869 10867 10865 10865 10864 10864 10863 10862 10861 10859 10857 10855 10853 10851 10850 10848 10847 10845 10844 10842 10841 10839 10838 10837 10836 10835 10834 10833 10832 10832 10831 10831 10830 10830 10830 10830 10829 10829 10829 10828 10828 10827 10827 10826 10826 10825 10825 10824 10824 10823 10822 10822 10821 10820 10819 10819 10818 10817 10816
10881 10882 10882 10882 10882 10883 10883 10883 10883 10882 10883 10882 10882 10882 10881 10880 10879 10877 10875 10874 10872 10872 10871 10870 10869 10869 10867 10865 10864 10863 10863 10862 10861 10860 10860 10858 10856 10855 10852 10850 10849 10847 10846 10844 10843 10842 10840 10839 10837 10836 10835 10834 10833 10832 10831 10830 10830 10829 10829 10829 10828 10828 10828 10828 10827 10827 10827 10826 10826 10825 10825 10824 10823 10823 10822 10821 10820 10819 10819 10818 10817 10816 10815 10814 10813
10879 10880 10880 10880 10880 10880 10880 10880 10880 10879 10879 10879 10879 10879 10878 10877 10876 10875 10873 10872 10871 10870 10869 10868 10868 10867 10866 10864 10862 10862 10861 10860 10860 10859 10858 10857 10855 10854 10852 10850 10848 10846 10844 10843 10842 10841 10839 10838 10837 10835 10834 10833 10832 10831 10830 10829 10829 10828 10828 10827 10827 10827 10826 10826 10826 10825 10825 10825 10824 10824 10823 10822 10821 10821 10820 10819 10818 10817 10816 10815 10814 10813 10813 10812 10811
10877 10877 10877 10877 10877 10877 10877 10876 10876 10876 10876 10876 10876 10876 10875 10875 10874 10872 10871 10870 10869 10868 10867 10866 10866 10866 10864 10862 10861 10860 10860 10859 10858 10857 10857 10855 10854 10852 10851 10849 10847 10845 10843 10842 10841 10840 10839 10837 10836 10834 10833 10832 10831 10830 10829 10828 10828 10827 10826 10826 10825 10825 10824 10824 10824 10823 10823 10823 10822 10822 10821 10820 10819 10819 10818 10817 10816 10815 10814 10813 10812 10811 10810 10810 10809
10874 10874 10875 10875 10874 10874 10874 10874 10874 10874 10874 10874 10874 10873 10872 10872 10871 10870 10869 10868 10867 10866 10865 10865 10865 10864 10863 10861 10859 10859 10858 10857 10857 10856 10855 10853 10852 10851 10849 10847 10846 10844 10842 10841 10840 10839 10838 10837 10835 10834 10832 10831 10830 10829 10828 10827 10827 10826 10825 10824 10824 10823 10823 10822 10822 10821 10821 10821 10820 10820 10819 10818 10818 10817 10816 10815 10814 10813 10812 10811 10810 10809 10808 10808 10807
10871 10872 10872 10872 10872 10871 10871 10871 10871 10871 10871 10871 10871 10870 10869 10869 10868 10868 10866 10866 10865 10864 10864 10863 10863 10863 10861 10860 10858 10857 10857 10856 10855 10854 10853 10852 10850 10849 10847 10846 10844 10843 10841 10840 10839 10838 10837 10836 10834 10832 10831 10830 10829 10828 10827 10826 10825 10825 10824 10823 10822 10822 10821 10821 10820 10820 10819 10819 10819 10818 10817 10817 10816 10815 10814 10813 10812 10811 10810 10809 10808 10807 10806 10805 10804
10868 10869 10869 10869 10869 10868 10868 10869 10869 10869 10869 10868 10868 10867 10867 10866 10866 10865 10864 10864 10863 10862 10862 10861 10861 10861 10860 10858 10857 10856 10855 10854 10854 10853 10851 10850 10848 10847 10845 10844 10843 10841 10840 10839 10838 10837 10836 10834 10833 10831 10830 10829 10828 10827 10826 10825 10824 10824 10823 10822 10821 10821 10820 10819 10819 10818 10818 10817 10817 10816 10816 10815 10814 10813 10812 10811 10810 10809 10808 10807 10806 10805 10804 10803 10802
10865 10865 10865 10865 10865 10865 10866 10866 10866 10866 10866 10865 10865 10864 10864 10864 10863 10863 10862 10861 10860 10859 10860 10860 10860 10860 10859 10857 10856 10855 10854 10853 10853 10852 10850 10848 10847 10845 10844 10843 10841 10840 10839 10838 10837 10836 10834 10833 10832 10830 10829 10828 10827 10826 10825 10824 10823 10822 10821 10821 10820 10819 10819 10818 10818 10817 10816 10816 10815 10815 10814 10814 10813 10812 10811 10810 10809 10808 10807 10805 10804 10803 10802 10800 10799
10862 10862 10862 10862 10862 10863 10863 10863 10863 10863 10863 10862 10862 10861 10861 10861 10861 10860 10859 10859 10857 10856 10858 10858 10858 10858 10857 10856 10854 10853 10852 10852 10851 10850 10849 10847 10845 10844 10842 10841 10840 10838 10837 10836 10835 10834 10833 10832 10831 10829 10828 10827 10826 10825 10824 10823 10822 10821 10820 10820 10819 10818 10818 10817 10816 10816 10815 10814 10814 10813 10813 10812 10811 10810 10809 10808 10807 10806 10805 10803 10802 10800 10799 10797 10795
10859 10859 10858 10859 10859 10860 10860 10860 10860 10860 10860 10860 10859 10859 10858 10858 10858 10858 10857 10855 10854 10854 10856 10856 10857 10857 10856 10854 10853 10852 10851 10850 10850 10849 10847 10845 10844 10842 10841 10839 10838 10837 10836 10835 10834 10833 10832 10831 10829 10828 10827 10826 10825 10824 10823 10822 10821 10820 10820 10819 10818 10818 10817 10816 10815 10814 10814 10813 10812 10812 10811 10811 10810 10809 10808 10807 10806 10805 10803 10802 10800 10798 10796 10794 10793
10855 10855 10855 10855 10856 10857 10857 10857 10857 10857 10857 10857 10857 10856 10856 10856 10856 10855 10854 10853 10852 10853 10854 10855 10855 10855 10854 10853 10851 10851 10850 10849 10848 10847 10846 10844 10843 10841 10839 10838 10837 10836 10835 10834 10833 10832 10831 10829 10828 10826 10825 10824 10824 10823 10822 10821 10820 10820 10819 10818 10818 10817 10816 10815 10814 10813 10812 10812 10811 10811 10810 10809 10808 10808 10807 10806 10805 10803 10802 10800 10798 10796 10794 10792 10790
10852 10852 10852 10852 10853 10854 10854 10854 10854 10854 10854 10854 10854 10854 10853 10853 10853 10853 10852 10850 10850 10851 10853 10853 10853 10853 10852 10851 10850 10849 10848 10848 10847 10846 10844 10843 10841 10840 10838 10837 10835 10834 10833 10832 10831 10830 10829 10828 10827 10825 10824 10823 10822 10821 10821 10820 10819 10819 10818 10818 10817 10816 10815 10814 10813 10812 10811 10811 10810 10809 10809 10808 10808 10807 10806 10805 10804 10803 10801 10799 10797 10795 10793 10791 10789
10849 10849 10848 10849 10850 10851 10851 10851 10851 10851 10851 10851 10852 10851 10851 10851 10851 10850 10849 10848 10849 10850 10851 10852 10852 10851 10850 10849 10848 10847 10847 10846 10845 10844 10843 10841 10840 10838 10837 10835 10834 10833 10831 10830 10830 10829 10828 10827 10825 10824 10822 10821 10820 10820 10819 10819 10818 10818 10818 10817 10816 10815 10815 10813 10812 10811 10811 10810 10809 10809 10808 10808 10807 10806 10805 10804 10803 10802 10800 10799 10797 10795 10792 10790 10788
10846 10846 10845 10846 10847 10847 10847 10847 10848 10848 10848 10849 10849 10848 10848 10848 10848 10848 10847 10846 10848 10849 10850 10850 10850 10849 10848 10847 10846 10845 10845 10845 10844 10843 10841 10840 10839 10837 10835 10834 10832 10831 10830 10829 10828 10827 10826 10825 10824 10823 10821 10820 10819 10819 10818 10818 10818 10817 10817 10817 10816 10815 10814 10813 10812 10812 10811 10810 10809 10809 10808 10807 10807 10806 10805 10804 10802 10801 10799 10798 10796 10794 10792 10789 10787
10842 10842 10842 10843 10844 10844 10844 10844 10845 10845 10846 10846 10846 10846 10845 10846 10846 10846 10845 10845 10846 10847 10848 10848 10848 10847 10846 10845 10844 10844 10843 10843 10843 10841 10840 10839 10838 10836 10834 10833 10831 10830 10828 10827 10826 10825 10824 10824 10823 10821 10820 10819 10818 10818 10817 10817 10817 10817 10817 10816 10816 10815 10814 10814 10813 10812 10811 10810 10810 10809 10808 10807 10806 10805 10804 10803 10801 10800 10798 10796 10795 10793 10790 10788 10785
10837 10838 10840 10840 10841 10841 10840 10841 10842 10843 10844 10844 10844 10844 10843 10843 10844 10843 10843 10843 10845 10845 10845 10846 10846 10845 10844 10843 10842 10842 10842 10842 10841 10840 10839 10838 10837 10835 10833 10832 10830 10828 10826 10825 10824 10823 10822 10822 10821 10820 10819 10818 10817 10817 10816 10816 10816 10816 10816 10815 10815 10814 10814 10813 10812 10812 10811 10810 10809 10808 10807 10807 10806 10804 10803 10801 10800 10798 10796 10795 10793 10791 10789 10786 10784
10833 10836 10837 10837 10837 10837 10838 10838 10840 10841 10841 10841 10842 10841 10841 10841 10841 10841 10841 10842 10843 10843 10843 10844 10844 10843 10842 10841 10840 10840 10840 10840 10839 10838 10837 10836 10835 10834 10833 10831 10829 10827 10825 10823 10822 10821 10821 10820 10819 10818 10817 10817 10816 10816 10815 10815 10815 10815 10815 10814 10814 10813 10813 10812 10812 10811 10810 10809 10809 10808 10806 10805 10804 10803 10801 10799 10797 10796 10794 10792 10790 10788 10786 10784 10782
10830 10832 10833 10833 10834 10834 10835 10836 10837 10838 10839 10839 10839 10839 10838 10839 10839 10839 10839 10840 10841 10841 10841 10842 10842 10841 10840 10839 10838 10838 10838 10838 10837 10837 10836 10835 10834 10833 10832 10830 10828 10826 10824 10822 10821 10819 10819 10818 10818 10817 10816 10815 10815 10815 10814 10814 10813 10813 10813 10813 10812 10812 10812 10811 10810 10810 10809 10808 10807 10806 10804 10803 10801 10800 10798 10796 10794 10793 10791 10790 10788 10786 10784 10782 10780
10826 10828 10829 10830 10830 10831 10832 10833 10835 10836 10836 10836 10837 10836 10836 10837 10837 10837 10837 10838 10838 10838 10839 10839 10839 10839 10838 10837 10836 10836 10836 10835 10835 10835 10835 10834 10833 10832 10831 10829 10827 10825 10823 10821 10819 10818 10817 10817 10816 10815 10815 10814 10814 10813 10813 10812 10812 10812 10811 10811 10811 10811 10810 10810 10809 10808 10807 10806 10805 10804 10802 10801 10799 10797 10796 10794 10792 10790 10788 10787 10785 10783 10781 10780 10778
10822 10824 10825 10826 10826 10828 10830 10831 10832 10833 10833 10833 10834 10834 10834 10835 10835 10835 10835 10836 10836 10836 10836 10837 10837 10836 10835 10834 10834 10834 10833 10833 10833 10833 10833 10832 10832 10831 10830 10828 10826 10824 10822 10820 10818 10817 10816 10815 10815 10814 10813 10813 10812 10812 10811 10811 10811 10810 10810 10810 10809 10809 10808 10808 10807 10806 10805 10804 10803 10802 10800 10799 10797 10795 10794 10792 10790 10788 10785 10784 10782 10780 10779 10777 10775
10818 10819 10821 10822 10823 10825 10828 10829 10830 10831 10830 10831 10831 10832 10832 10833 10833 10833 10834 10834 10834 10834 10834 10834 10834 10833 10832 10832 10831 10831 10831 10831 10831 10831 10831 10831 10830 10829 10828 10826 10825 10823 10821 10819 10818 10817 10816 10815 10814 10813 10812 10811 10811 10810 10810 10809 10809 10809 10809 10808 10808 10807 10807 10806 10805 10804 10803 10802 10801 10799 10798 10796 10795 10793 10792 10790 10787 10785 10783 10781 10779 10777 10775 10774 10772
10814 10815 10817 10818 10820 10823 10825 10826 10827 10827 10827 10828 10829 10829 10830 10830 10831 10831 10831 10831 10831 10832 10832 10831 10831 10830 10829 10829 10829 10828 10828 10828 10829 10829 10829 10829 10828 10827 10827 10825 10824 10822 10820 10819 10817 10816 10815 10814 10813 10812 10811 10810 10810 10809 10809 10808 10808 10808 10808 10807 10807 10806 10805 10804 10803 10802 10801 10799 10798 10796 10795 10794 10792 10791 10789 10787 10785 10783 10780 10778 10776 10774 10772 10770 10769
10809 10811 10813 10815 10817 10820 10822 10823 10824 10824 10824 10825 10826 10827 10827 10828 10828 10828 10829 10829 10829 10829 10829 10829 10828 10827 10826 10826 10826 10826 10826 10826 10827 10827 10827 10827 10826 10825 10825 10824 10822 10821 10819 10818 10817 10816 10815 10814 10813 10811 10810 10810 10809 10808 10808 10807 10807 10807 10806 10806 10805 10804 10803 10803 10801 10800 10799 10797 10795 10794 10792 10791 10789 10788 10786 10785 10783 10780 10778 10776 10773 10771 10769 10767 10765
10805 10807 10810 10812 10814 10817 10819 10820 10820 10821 10822 10823 10823 10824 10825 10825 10825 10826 10826 10826 10826 10826 10826 10826 10825 10824 10823 10823 10823 10823 10823 10824 10824 10825 10825 10825 10824 10824 10823 10822 10821 10820 10818 10817 10816 10815 10814 10813 10812 10811 10810 10809 10808 10808 10807 10807 10806 10806 10805 10805 10804 10803 10802 10801 10799 10798 10796 10794 10792 10791 10789 10787 10786 10785 10783 10782 10780 10777 10775 10773 10770 10768 10766 10763 10761
10801 10804 10807 10809 10811 10813 10815 10816 10817 10818 10819 10820 10821 10822 10822 10822 10823 10823 10823 10823 10823 10823 10823 10823 10823 10822 10821 10821 10821 10821 10821 10822 10822 10823 10823 10823 10822 10822 10821 10820 10819 10818 10817 10816 10815 10814 10813 10812 10811 10810 10809 10808 10808 10807 10807 10806 10805 10804 10803 10803 10802 10801 10799 10798 10797 10795 10793 10791 10789 10788 10786 10784 10783 10781 10780 10778 10776 10774 10772 10770 10768 10765 10763 10761 10758
10798 10801 10804 10806 10808 10809 10811 10813 10813 10814 10816 10817 10818 10819 10819 10820 10820 10820 10820 10820 10820 10820 10821 10821 10820 10819 10818 10818 10819 10819 10819 10819 10820 10820 10821 10821 10820 10820 10820 10819 10818 10817 10815 10814 10813 10812 10811 10810 10809 10808 10807 10807 10806 10806 10806 10805 10804 10803 10802 10801 10800 10798 10797 10796 10794 10792 10790 10788 10786 10784 10783 10781 10779 10778 10776 10774 10772 10770 10768 10766 10764 10762 10760 10757 10755
10795 10799 10801 10802 10803 10805 10808 10809 10810 10811 10813 10814 10815 10816 10816 10817 10817 10817 10817 10817 10817 10817 10818 10818 10817 10817 10817 10817 10817 10817 10817 10817 10818 10818 10818 10818 10818 10818 10818 10817 10816 10815 10814 10812 10811 10810 10809 10808 10807 10806 10805 10805 10805 10804 10804 10803 10802 10801 10800 10799 10798 10796 10795 10793 10792 10790 10787 10785 10783 10781 10779 10777 10776 10774 10772 10770 10768 10766 10764 10763 10760 10758 10756 10754 10752
10792 10796 10798 10799 10800 10802 10804 10805 10806 10808 10810 10811 10812 10813 10813 10813 10813 10814 10814 10814 10814 10814 10815 10815 10815 10815 10815 10816 10815 10815 10815 10815 10815 10815 10816 10815 10815 10815 10815 10815 10814 10813 10812 10810 10809 10808 10807 10806 10805 10804 10803 10803 10802 10802 10801 10801 10800 10798 10797 10796 10795 10794 10792 10791 10789 10787 10784 10782 10780 10778 10776 10774 10772 10770 10768 10766 10764 10762 10760 10758 10757 10754 10753 10751 10748
10790 10793 10794 10795 10797 10798 10799 10801 10803 10805 10807 10808 10809 10809 10809 10810 10810 10810 10810 10810 10811 10811 10812 10812 10812 10812 10813 10814 10814 10813 10813 10812 10812 10812 10812 10812 10812 10812 10812 10812 10811 10810 10809 10808 10807 10806 10805 10803 10803 10802 10801 10800 10800 10799 10799 10798 10797 10795 10794 10793 10792 10791 10789 10787 10785 10783 10781 10779 10776 10774 10772 10770 10768 10766 10764 10763 10761 10758 10756 10754 10752 10750 10748 10746 10744
10788 10789 10791 10792 10793 10794 10795 10798 10800 10802 10803 10804 10805 10805 10805 10806 10806 10806 10807 10807 10807 10808 10808 10809 10809 10809 10810 10811 10811 10811 10811 10810 10810 10809 10809 10809 10809 10809 10809 10809 10808 10807 10807 10806 10805 10803 10802 10801 10800 10799 10799 10798 10797 10796 10795 10794 10793 10792 10791 10790 10789 10788 10786 10784 10782 10780 10778 10775 10773 10770 10768 10766 10764 10762 10761 10759 10757 10754 10752 10750 10748 10745 10743 10741 10740
10785 10785 10787 10788 10789 10791 10792 10794 10797 10798 10799 10800 10801 10801 10801 10802 10802 10803 10803 10803 10804 10805 10805 10805 10806 10806 10807 10808 10808 10809 10808 10808 10807 10807 10806 10806 10806 10806 10806 10806 10805 10804 10803 10802 10802 10800 10799 10798 10797 10797 10796 10795 10794 10793 10792 10791 10790 10789 10788 10787 10786 10785 10783 10781 10779 10777 10774 10771 10769 10767 10765 10763 10760 10758 10756 10754 10752 10750 10747 10745 10743 10740 10738 10736 10734
10780 10781 10783 10785 10787 10788 10790 10791 10793 10794 10795 10796 10796 10797 10798 10798 10798 10799 10800 10800 10801 10801 10801 10802 10802 10803 10804 10805 10805 10805 10805 10805 10805 10804 10804 10803 10803 10803 10803 10803 10802 10801 10800 10799 10798 10797 10796 10795 10795 10794 10793 10792 10791 10790 10789 10788 10787 10786 10785 10784 10783 10781 10779 10778 10776 10773 10770 10767 10765 10763 10761 10759 10757 10754 10752 10749 10747 10745 10742 10740 10738 10736 10733 10731 10729
10774 10776 10779 10782 10784 10785 10787 10788 10790 10790 10791 10791 10792 10793 10794 10794 10795 10796 10797 10797 10797 10797 10798 10798 10799 10800 10801 10802 10802 10802 10802 10802 10802 10802 10801 10801 10800 10800 10800 10799 10798 10798 10797 10796 10794 10794 10793 10793 10792 10791 10790 10789 10787 10786 10785 10785 10784 10782 10781 10780 10778 10777 10776 10774 10772 10769 10766 10763 10761 10758 10756 10754 10752 10750 10747 10744 10741 10739 10737 10735 10733 10730 10728 10725 10723
10769 10772 10776 10778 10780 10782 10784 10785 10786 10787 10787 10787 10788 10789 10790 10791 10791 10792 10793 10793 10793 10794 10794 10794 10795 10796 10797 10798 10799 10799 10798 10799 10799 10799 10798 10797 10797 10797 10796 10796 10795 10794 10794 10793 10791 10790 10790 10789 10789 10788 10787 10785 10784 10783 10782 10781 10780 10778 10777 10776 10774 10773 10771 10770 10767 10764 10761 10759 10756 10754 10752 10749 10747 10744 10742 10739 10737 10734 10731 10729 10727 10725 10722 10720 10717
10765 10768 10771 10774 10775 10778 10779 10781 10782 10783 10783 10783 10784 10786 10787 10787 10787 10788 10789 10789 10789 10790 10790 10791 10792 10793 10793 10794 10794 10795 10795 10795 10795 10795 10795 10794 10794 10794 10793 10793 10792 10791 10790 10789 10788 10788 10787 10786 10785 10784 10783 10782 10781 10779 10778 10777 10776 10774 10773 10771 10770 10768 10767 10765 10763 10760 10757 10754 10752 10749 10747 10745 10742 10739 10736 10734 10732 10729 10726 10723 10721 10719 10716 10714 10712
10761 10765 10767 10769 10771 10773 10775 10776 10778 10779 10779 10779 10781 10783 10783 10783 10783 10784 10784 10785 10785 10785 10786 10787 10788 10789 10789 10789 10789 10790 10791 10791 10791 10791 10791 10790 10790 10789 10789 10789 10788 10788 10787 10786 10785 10784 10784 10783 10781 10780 10779 10778 10777 10775 10774 10773 10772 10770 10768 10767 10766 10764 10762 10761 10759 10755 10752 10750 10747 10745 10742 10739 10736 10733 10730 10728 10726 10724 10721 10718 10716 10713 10710 10708 10705
10758 10761 10763 10765 10766 10768 10770 10772 10774 10775 10775 10776 10778 10779 10779 10779 10779 10779 10779 10780 10780 10781 10782 10783 10784 10785 10785 10785 10785 10785 10786 10786 10786 10786 10786 10786 10786 10785 10785 10785 10784 10783 10783 10782 10782 10781 10780 10779 10777 10776 10775 10774 10773 10771 10770 10768 10767 10766 10764 10763 10761 10760 10758 10756 10754 10750 10747 10745 10742 10739 10736 10733 10730 10727 10725 10723 10721 10718 10716 10713 10710 10707 10705 10702 10700
10754 10756 10758 10760 10762 10763 10765 10767 10770 10771 10771 10772 10774 10775 10773 10774 10774 10775 10775 10775 10776 10777 10778 10779 10780 10780 10781 10781 10781 10781 10781 10781 10782 10782 10782 10782 10781 10781 10780 10780 10780 10779 10779 10778 10778 10777 10776 10774 10773 10772 10771 10770 10768 10767 10766 10764 10762 10761 10760 10758 10757 10755 10753 10752 10749 10745 10742 10740 10737 10734 10731 10728 10725 10723 10720 10717 10714 10712 10709 10707 10704 10701 10699 10696 10694
10750 10751 10753 10755 10757 10759 10761 10764 10766 10767 10768 10769 10770 10768 10767 10768 10769 10770 10770 10771 10772 10773 10775 10775 10776 10776 10776 10776 10776 10776 10776 10776 10777 10777 10777 10777 10776 10776 10776 10776 10776 10775 10775 10774 10773 10772 10771 10770 10769 10768 10766 10765 10764 10763 10761 10760 10758 10756 10754 10753 10752 10750 10748 10746 10744 10740 10737 10734 10731 10728 10725 10723 10720 10718 10715 10711 10708 10705 10702 10700 10697 10695 10692 10689 10686
10745 10747 10748 10750 10752 10755 10758 10761 10763 10763 10764 10764 10763 10761 10761 10762 10764 10765 10766 10767 10768 10769 10770 10770 10771 10771 10772 10772 10771 10771 10770 10770 10771 10772 10772 10772 10772 10772 10772 10772 10772 10771 10771 10770 10769 10767 10766 10765 10764 10764 10762 10761 10760 10758 10757 10756 10754 10752 10750 10748 10747 10745 10743 10740 10738 10734 10731 10728 10725 10723 10720 10717 10715 10712 10709 10706 10703 10699 10696 10693 10690 10688 10685 10681 10678
10740 10742 10743 10745 10748 10752 10755 10758 10759 10759 10758 10756 10755 10755 10755 10756 10758 10760 10761 10763 10765 10766 10766 10766 10766 10767 10768 10767 10767 10765 10763 10764 10765 10766 10767 10767 10767 10768 10767 10767 10767 10767 10767 10765 10764 10763 10762 10761 10760 10759 10758 10756 10755 10754 10753 10751 10750 10748 10746 10744 10742 10740 10738 10736 10733 10729 10726 10723 10720 10718 10715 10713 10710 10707 10704 10701 10698 10694 10691 10687 10684 10680 10677 10673 10670
10736 10737 10739 10742 10746 10749 10753 10755 10756 10754 10750 10749 10749 10750 10749 10750 10753 10756 10757 10760 10761 10762 10762 10761 10762 10763 10764 10764 10763 10762 10759 10759 10760 10761 10761 10762 10763 10763 10763 10763 10763 10763 10762 10761 10760 10759 10758 10757 10756 10755 10753 10752 10751 10750 10748 10746 10745 10743 10741 10740 10738 10736 10734 10731 10728 10725 10721 10718 10717 10715 10712 10709 10706 10703 10700 10696 10693 10689 10685 10682 10678 10674 10671 10667 10663
10731 10733 10736 10740 10744 10748 10750 10751 10751 10746 10742 10743 10745 10745 10746 10747 10750 10753 10754 10756 10757 10757 10757 10757 10758 10759 10760 10760 10760 10759 10756 10755 10756 10756 10757 10757 10758 10759 10759 10759 10759 10759 10758 10756 10755 10754 10753 10753 10752 10751 10749 10748 10747 10745 10743 10741 10739 10737 10735 10733 10731 10730 10728 10726 10724 10721 10717 10714 10712 10710 10707 10704 10701 10698 10694 10691 10687 10683 10679 10675 10672 10668 10664 10660 10656
10727 10730 10734 10738 10743 10748 10749 10748 10746 10739 10736 10738 10741 10742 10744 10746 10747 10749 10751 10753 10753 10753 10753 10754 10754 10754 10753 10754 10756 10756 10753 10752 10752 10752 10752 10753 10753 10754 10755 10755 10755 10754 10753 10752 10751 10750 10749 10749 10748 10746 10745 10744 10743 10741 10739 10736 10734 10731 10729 10727 10725 10723 10721 10719 10718 10716 10713 10710 10707 10704 10702 10698 10695 10692 10688 10684 10680 10676 10672 10668 10664 10661 10657 10652 10648
10722 10726 10731 10737 10745 10749 10747 10744 10739 10733 10733 10736 10739 10741 10743 10744 10745 10745 10747 10748 10749 10749 10749 10750 10750 10748 10746 10748 10753 10751 10748 10748 10747 10747 10748 10748 10749 10749 10750 10750 10750 10749 10748 10747 10746 10746 10745 10745 10744 10742 10741 10739 10738 10736 10734 10731 10729 10726 10723 10720 10718 10716 10713 10712 10710 10709 10707 10705 10701 10698 10695 10692 10688 10685 10681 10677 10673 10669 10665 10661 10656 10653 10649 10645 10641
10718 10722 10728 10736 10742 10741 10738 10737 10733 10730 10733 10735 10737 10739 10740 10742 10743 10742 10743 10745 10745 10745 10745 10746 10746 10745 10742 10744 10748 10746 10743 10743 10744 10743 10743 10744 10744 10745 10745 10745 10745 10745 10744 10743 10742 10742 10741 10741 10739 10738 10736 10734 10733 10730 10728 10726 10723 10720 10718 10715 10712 10709 10707 10705 10703 10701 10699 10697 10694 10691 10688 10685 10681 10677 10673 10670 10666 10661 10657 10653 10650 10646 10642 10638 10634
10713 10718 10725 10731 10732 10729 10732 10735 10730 10728 10731 10732 10734 10736 10736 10738 10739 10739 10740 10741 10741 10741 10741 10742 10744 10743 10740 10740 10742 10742 10740 10740 10740 10740 10740 10740 10741 10741 10741 10741 10741 10741 10740 10739 10738 10738 10738 10737 10735 10733 10731 10729 10727 10725 10723 10720 10718 10715 10712 10709 10706 10703 10701 10699 10696 10694 10691 10688 10686 10683 10680 10677 10673 10669 10665 10661 10657 10653 10649 10645 10641 10638 10634 10630 10625
10709 10714 10721 10723 10721 10723 10731 10734 10726 10724 10727 10728 10729 10732 10732 10734 10735 10736 10737 10737 10737 10737 10737 10739 10741 10740 10738 10737 10738 10737 10737 10737 10737 10737 10737 10737 10737 10737 10738 10738 10738 10737 10736 10736 10735 10735 10734 10732 10731 10729 10727 10725 10722 10720 10718 10715 10712 10709 10706 10703 10701 10698 10695 10692 10690 10687 10684 10681 10678 10674 10671 10668 10665 10661 10656 10652 10647 10643 10639 10636 10633 10629 10625 10620 10616